W4EMZ Weather Reports


time (UTC)temp
C
wind
direction
speed
KPH
gust
KPH
rain 1hr
cm
rain 24hr
cm
rain mn
cm
humidity
%
barometer
mb
20260906051542 22 103 0.0 0.0 0.00 0.00 0.00 92 987.6
20260906050038 23 78 0.0 0.0 0.00 0.00 0.00 92 987.4
20260906044538 23 78 0.0 0.0 0.00 0.00 0.00 92 987.5
20260906043038 23 78 0.0 0.0 0.00 0.00 0.00 91 987.8
20260906041544 23 78 0.0 0.0 0.00 0.00 0.00 91 987.9
20260906040044 23 78 0.0 0.0 0.00 0.00 0.00 91 988.0
20260906034536 23 78 0.0 0.0 0.00 0.00 0.00 90 988.0
20260906033035 23 78 0.0 0.0 0.00 0.00 0.00 89 987.9
20260906031536 23 78 0.0 0.0 0.00 0.00 0.00 89 988.0
20260906030037 23 78 0.0 0.0 0.00 0.00 0.00 90 988.0
20260906024536 23 78 0.0 0.0 0.00 0.00 0.00 89 987.9
20260906023043 24 78 0.0 0.0 0.00 0.00 0.00 87 987.3
20260906021539 24 78 0.0 0.0 0.00 0.00 0.00 87 987.2
20260906020038 25 78 0.0 0.0 0.00 0.00 0.00 86 987.2
20260906014544 25 78 0.0 0.0 0.00 0.00 0.00 87 987.1
20260906013036 25 78 0.0 0.0 0.00 0.00 0.00 85 986.9
20260906011530 25 78 0.0 0.0 0.00 0.00 0.00 84 987.0
20260906010030 26 81 0.0 0.0 0.00 0.00 0.00 83 986.7
20260906004531 26 81 0.0 1.6 0.00 0.00 0.00 81 986.7
20260906003028 26 78 3.2 4.8 0.00 0.00 0.00 81 986.7
20260906001522 27 38 0.0 3.2 0.00 0.00 0.00 79 986.9
20260906000021 27 110 0.0 4.8 0.00 0.00 0.00 77 986.7
20260905234519 27 71 1.6 4.8 0.00 0.00 0.00 77 986.9
20260905233019 28 105 0.0 3.2 0.00 0.00 0.00 75 986.9
20260905231521 28 173 0.0 0.0 0.00 0.00 0.00 73 986.7
20260905230021 28 173 1.6 3.2 0.00 0.00 0.00 72 986.5
20260905224521 28 69 1.6 6.4 0.00 0.00 0.00 72 986.4
20260905223018 29 40 0.0 1.6 0.00 0.00 0.00 71 986.4
20260905221533 30 40 0.0 1.6 0.00 0.00 0.00 70 986.7
20260905220022 30 40 0.0 4.8 0.00 0.00 0.00 69 986.7
20260905214520 30 188 0.0 1.6 0.00 0.00 0.00 66 986.7
20260905213024 31 304 0.0 6.4 0.00 0.00 0.00 65 987.0
20260905211526 31 63 0.0 6.4 0.00 0.00 0.00 65 987.2
20260905210029 30 56 0.0 6.4 0.00 0.00 0.00 65 987.2
20260905204523 30 259 3.2 8.0 0.00 0.00 0.00 65 987.6
20260905203021 30 115 3.2 9.7 0.00 0.00 0.00 67 987.6
20260905201519 30 32 1.6 12.9 0.00 0.00 0.00 67 987.6
20260905200012 29 59 4.8 17.7 0.00 0.00 0.00 63 987.3
20260905194511 30 292 3.2 25.7 0.00 0.00 0.00 60 987.5
20260905193013 35 61 16.1 33.8 0.00 0.00 0.00 54 988.3
20260905191508 38 286 1.6 12.9 0.00 0.00 0.00 44 987.4
20260905190004 38 20 3.2 9.7 0.00 0.00 0.00 46 987.2
20260905184620 38 360 3.2 11.3 0.00 0.00 0.00 44 987.5
20260905183057 36 298 1.6 8.0 0.00 0.00 0.00 48 987.5
20260905181558 36 63 1.6 9.7 0.00 0.00 0.00 50 987.6
20260905180056 36 333 3.2 14.5 0.00 0.00 0.00 50 987.9
20260905174558 36 115 3.2 9.7 0.00 0.00 0.00 48 988.0
20260905173051 35 232 3.2 9.7 0.00 0.00 0.00 52 988.0
20260905171553 35 107 1.6 9.7 0.00 0.00 0.00 50 988.3
20260905170049 35 268 3.2 12.9 0.00 0.00 0.00 54 988.5
20260905164549 35 274 3.2 9.7 0.00 0.00 0.00 56 988.5
20260905163041 35 165 3.2 8.0 0.00 0.00 0.00 54 988.8
20260905161539 34 196 1.6 12.9 0.00 0.00 0.00 55 989.0
20260905160035 33 355 1.6 11.3 0.00 0.00 0.00 62 989.0
20260905154531 32 263 3.2 6.4 0.00 0.00 0.00 64 989.1
20260905153028 31 305 0.0 4.8 0.00 0.00 0.00 73 989.2
20260905151525 30 355 1.6 6.4 0.00 0.00 0.00 75 989.3
20260905150020 30 63 1.6 3.2 0.00 0.00 0.00 82 989.5
20260905144516 28 307 0.0 4.8 0.00 0.00 0.00 83 989.6
20260905143019 28 34 0.0 1.6 0.00 0.00 0.00 82 989.7
20260905141509 27 30 0.0 0.0 0.00 0.00 0.00 87 989.8
20260905140005 26 15 0.0 0.0 0.00 0.00 0.00 93 989.8
20260905134502 25 21 0.0 0.0 0.00 0.00 0.00 94 989.9
20260905133058 25 21 0.0 0.0 0.00 0.00 0.00 96 990.1
20260905131508 24 76 0.0 0.0 0.00 0.00 0.00 96 990.2
20260905130004 23 76 0.0 0.0 0.00 0.00 0.00 96 990.2
20260905124502 23 76 0.0 0.0 0.00 0.00 0.00 95 990.1
20260905123109 23 76 0.0 0.0 0.00 0.00 0.00 95 990.0
20260905121551 23 76 0.0 0.0 0.00 0.00 0.00 95 989.9
20260905120049 23 76 0.0 0.0 0.00 0.00 0.00 95 989.8
20260905114545 23 80 0.0 0.0 0.00 0.00 0.00 95 989.7
20260905113042 22 80 0.0 0.0 0.00 0.00 0.00 94 989.6
20260905111553 23 80 0.0 0.0 0.00 0.00 0.00 95 989.4
20260905110040 23 81 0.0 0.0 0.00 0.00 0.00 95 989.2
20260905104539 23 81 0.0 0.0 0.00 0.00 0.00 95 989.0
20260905103038 23 81 0.0 0.0 0.00 0.00 0.00 94 988.9
20260905101545 23 81 0.0 0.0 0.00 0.00 0.00 94 988.8
20260905100041 23 81 0.0 0.0 0.00 0.00 0.00 94 988.8
20260905094539 23 81 0.0 0.0 0.00 0.00 0.00 94 988.8
20260905093038 23 81 0.0 0.0 0.00 0.00 0.00 94 988.7
20260905091536 23 81 0.0 0.0 0.00 0.00 0.00 94 988.7
20260905090035 23 81 0.0 0.0 0.00 0.00 0.00 93 988.5
20260905084555 23 81 0.0 0.0 0.00 0.00 0.00 93 988.6
20260905083029 23 81 0.0 0.0 0.00 0.00 0.00 93 988.6
20260905081530 23 81 0.0 0.0 0.00 0.00 0.00 93 988.6
20260905080031 23 81 0.0 0.0 0.00 0.00 0.00 93 988.7
20260905074529 24 81 0.0 0.0 0.00 0.00 0.00 92 988.5
20260905073033 24 81 0.0 0.0 0.00 0.00 0.00 92 988.5
20260905071533 24 81 0.0 0.0 0.00 0.00 0.00 92 988.6
20260905070030 24 81 0.0 0.0 0.00 0.00 0.00 92 988.6
20260905064532 24 81 0.0 0.0 0.00 0.00 0.00 91 988.6
20260905063030 25 73 0.0 0.0 0.00 0.00 0.00 91 988.7
20260905061527 25 73 0.0 0.0 0.00 0.00 0.00 91 988.7
20260905060031 25 74 0.0 0.0 0.00 0.00 0.00 90 988.8
20260905054527 25 74 0.0 0.0 0.00 0.00 0.00 90 989.0
20260905053126 25 74 0.0 0.0 0.00 0.00 0.00 90 988.8